When you browse on this site, cookies collect data to enhance your experience and personalize the content and advertising you see.
Visit our Privacy Policy to learn more. By continuing to use the site, you agree to this use of cookies and data.
  • In Hungary
  • List of Countries
  • For 7 days
  • Water Temperature
  • Weather Map
  • News
  • Weather Widgets
  • user-avatar
    Login

    Hourly Weather Swierzna

    Today, 9 April, Thursday

    Time Temperature Precipitation Wind Pressure Humidity
    00:00 +9°C° 0 mm 2 mps 754 mmHg 53%
    01:00 +9°C° 0 mm 3 mps 753 mmHg 53%
    02:00 +9°C° 0 mm 2 mps 753 mmHg 54%
    03:00 +8°C° 0 mm 2 mps 753 mmHg 56%
    04:00 +8°C° 0 mm 2 mps 752 mmHg 57%
    05:00 +9°C° 0 mm 2 mps 752 mmHg 58%
    06:00 +9°C° 0 mm 2 mps 752 mmHg 58%
    07:00 +12°C° 0 mm 2 mps 752 mmHg 57%
    08:00 +13°C° 0 mm 3 mps 752 mmHg 53%
    09:00 +16°C° 0 mm 3 mps 752 mmHg 50%
    10:00 +18°C° 0 mm 3 mps 752 mmHg 46%
    11:00 +19°C° 0 mm 4 mps 752 mmHg 45%
    12:00 +19°C° 0 mm 4 mps 752 mmHg 44%
    13:00 +20°C° 0 mm 5 mps 752 mmHg 43%
    14:00 +20°C° 0 mm 5 mps 752 mmHg 45%
    15:00 +20°C° 0 mm 5 mps 752 mmHg 47%
    16:00 +19°C° 0 mm 6 mps 752 mmHg 48%
    17:00 +16°C° 0 mm 5 mps 752 mmHg 53%
    18:00 +14°C° 0 mm 4 mps 752 mmHg 57%
    19:00 +12°C° 0 mm 4 mps 752 mmHg 61%
    20:00 +11°C° 0 mm 3 mps 753 mmHg 66%
    21:00 +10°C° 0 mm 3 mps 754 mmHg 71%
    22:00 +9°C° 0 mm 3 mps 755 mmHg 76%
    23:00 +8°C° 0 mm 2 mps 755 mmHg 77%

    Tomorrow, 10 April, Friday

    Time Temperature Precipitation Wind Pressure Humidity
    00:00 +7°C° 0 mm 2 mps 755 mmHg 78%
    01:00 +6°C° 0 mm 2 mps 755 mmHg 79%
    02:00 +6°C° 0 mm 2 mps 755 mmHg 75%
    03:00 +5°C° 0 mm 2 mps 755 mmHg 71%
    04:00 +6°C° 0 mm 1 mps 755 mmHg 67%
    05:00 +6°C° 0 mm 1 mps 756 mmHg 64%
    06:00 +7°C° 0 mm 1 mps 756 mmHg 61%
    07:00 +7°C° 0 mm 1 mps 756 mmHg 58%
    08:00 +8°C° 0 mm 2 mps 756 mmHg 52%
    09:00 +9°C° 0 mm 2 mps 756 mmHg 46%
    10:00 +12°C° 0 mm 2 mps 756 mmHg 39%
    11:00 +12°C° 0 mm 2 mps 756 mmHg 38%
    12:00 +13°C° 0 mm 2 mps 756 mmHg 36%
    13:00 +14°C° 0 mm 2 mps 755 mmHg 35%
    14:00 +14°C° 0 mm 2 mps 755 mmHg 36%
    15:00 +14°C° 0 mm 2 mps 754 mmHg 38%
    16:00 +14°C° 0 mm 2 mps 754 mmHg 39%
    17:00 +13°C° 0 mm 2 mps 754 mmHg 44%
    18:00 +10°C° 0 mm 2 mps 754 mmHg 49%
    19:00 +10°C° 0 mm 1 mps 754 mmHg 54%
    20:00 +9°C° 0 mm 1 mps 754 mmHg 57%
    21:00 +8°C° 0 mm 1 mps 755 mmHg 59%
    22:00 +7°C° 0 mm 1 mps 755 mmHg 62%
    23:00 +7°C° 0 mm 1 mps 755 mmHg 63%

    Day after tomorrow, 11 April, Saturday

    Time Temperature Precipitation Wind Pressure Humidity
    00:00 +6°C° 0 mm 1 mps 755 mmHg 64%
    01:00 +6°C° 0 mm 1 mps 755 mmHg 66%
    02:00 +5°C° 0 mm 2 mps 755 mmHg 67%
    03:00 +4°C° 0 mm 2 mps 755 mmHg 69%
    04:00 +4°C° 0 mm 2 mps 755 mmHg 70%
    05:00 +4°C° 0 mm 2 mps 755 mmHg 70%
    06:00 +5°C° 0 mm 2 mps 756 mmHg 70%
    07:00 +6°C° 0 mm 2 mps 756 mmHg 70%
    08:00 +7°C° 0 mm 2 mps 756 mmHg 64%
    09:00 +9°C° 0 mm 2 mps 756 mmHg 57%
    10:00 +10°C° 0 mm 2 mps 756 mmHg 51%
    11:00 +12°C° 0 mm 2 mps 756 mmHg 47%
    12:00 +13°C° 0 mm 2 mps 756 mmHg 44%
    13:00 +14°C° 0 mm 2 mps 756 mmHg 40%
    14:00 +14°C° 0 mm 2 mps 756 mmHg 40%
    15:00 +14°C° 0 mm 2 mps 756 mmHg 40%
    16:00 +14°C° 0 mm 1 mps 755 mmHg 40%
    17:00 +13°C° 0 mm 1 mps 755 mmHg 45%
    18:00 +11°C° 0 mm 1 mps 755 mmHg 50%
    19:00 +10°C° 0 mm 1 mps 755 mmHg 55%
    20:00 +9°C° 0 mm 1 mps 756 mmHg 57%
    21:00 +9°C° 0 mm 1 mps 756 mmHg 58%
    22:00 +8°C° 0 mm 1 mps 756 mmHg 59%
    23:00 +8°C° 0 mm 1 mps 755 mmHg 61%

    12 April, Sunday

    Time Temperature Precipitation Wind Pressure Humidity
    00:00 +7°C° 0 mm 1 mps 755 mmHg 64%
    01:00 +7°C° 0 mm 1 mps 755 mmHg 66%
    02:00 +6°C° 0 mm 1 mps 755 mmHg 67%
    03:00 +6°C° 0 mm 1 mps 754 mmHg 68%
    04:00 +6°C° 0 mm 1 mps 754 mmHg 69%
    05:00 +6°C° 0 mm 2 mps 754 mmHg 67%
    06:00 +7°C° 0 mm 2 mps 753 mmHg 66%
    07:00 +8°C° 0 mm 2 mps 753 mmHg 64%
    08:00 +10°C° 0 mm 2 mps 753 mmHg 59%
    09:00 +13°C° 0 mm 2 mps 752 mmHg 53%
    10:00 +14°C° 0 mm 3 mps 752 mmHg 48%
    11:00 +16°C° 0 mm 3 mps 752 mmHg 45%
    12:00 +17°C° 0 mm 2 mps 751 mmHg 43%
    13:00 +18°C° 0 mm 2 mps 751 mmHg 41%
    14:00 +18°C° 0 mm 3 mps 750 mmHg 41%
    15:00 +19°C° 0 mm 3 mps 749 mmHg 42%
    16:00 +19°C° 0 mm 3 mps 749 mmHg 43%
    17:00 +17°C° 0 mm 2 mps 748 mmHg 48%
    18:00 +15°C° 0 mm 2 mps 748 mmHg 53%
    19:00 +13°C° 0 mm 2 mps 748 mmHg 58%
    20:00 +13°C° 0 mm 2 mps 747 mmHg 63%
    21:00 +12°C° 0 mm 2 mps 747 mmHg 68%
    22:00 +10°C° 0 mm 3 mps 747 mmHg 73%
    23:00 +10°C° 0 mm 3 mps 747 mmHg 77%

    13 April, Monday

    Time Temperature Precipitation Wind Pressure Humidity
    00:00 +9°C° 0 mm 3 mps 746 mmHg 81%
    01:00 +9°C° 0 mm 3 mps 746 mmHg 84%
    02:00 +9°C° 0 mm 3 mps 745 mmHg 84%
    03:00 +9°C° 0 mm 2 mps 745 mmHg 84%
    04:00 +8°C° 0 mm 2 mps 744 mmHg 84%
    05:00 +9°C° 0 mm 3 mps 744 mmHg 81%
    06:00 +10°C° 0 mm 3 mps 744 mmHg 77%
    07:00 +11°C° 0 mm 3 mps 744 mmHg 73%
    08:00 +13°C° 0 mm 3 mps 743 mmHg 68%
    09:00 +16°C° 0 mm 3 mps 743 mmHg 63%
    10:00 +18°C° 0 mm 4 mps 743 mmHg 58%
    11:00 +19°C° 0.1 mm 4 mps 742 mmHg 54%
    12:00 +20°C° 0.1 mm 5 mps 742 mmHg 50%
    13:00 +21°C° 0.1 mm 5 mps 741 mmHg 46%
    14:00 +20°C° 0.3 mm 5 mps 741 mmHg 50%
    15:00 +19°C° 0.3 mm 5 mps 741 mmHg 55%
    16:00 +17°C° 0.3 mm 5 mps 740 mmHg 60%
    17:00 +15°C° 0.4 mm 5 mps 741 mmHg 68%
    18:00 +13°C° 0.4 mm 4 mps 741 mmHg 76%
    19:00 +11°C° 0.4 mm 4 mps 741 mmHg 84%
    20:00 +9°C° 0.3 mm 5 mps 742 mmHg 83%
    21:00 +8°C° 0.3 mm 6 mps 742 mmHg 81%
    22:00 +6°C° 0.3 mm 7 mps 743 mmHg 80%
    23:00 +4°C° 0 mm 7 mps 744 mmHg 81%

    14 April, Tuesday

    Time Temperature Precipitation Wind Pressure Humidity
    00:00 +3°C° 0 mm 7 mps 745 mmHg 83%
    01:00 +1°C° 0 mm 8 mps 746 mmHg 85%
    02:00 0°C° 0.1 mm 7 mps 747 mmHg 81%
    03:00 -1°C° 0.1 mm 6 mps 748 mmHg 77%
    04:00 -1°C° 0.1 mm 5 mps 749 mmHg 74%
    05:00 -1°C° 0 mm 5 mps 749 mmHg 72%
    06:00 0°C° 0 mm 5 mps 750 mmHg 70%
    07:00 0°C° 0 mm 5 mps 751 mmHg 68%
    08:00 +1°C° 0.2 mm 6 mps 751 mmHg 63%
    09:00 +2°C° 0.2 mm 6 mps 751 mmHg 58%
    10:00 +3°C° 0.2 mm 6 mps 752 mmHg 52%
    11:00 +3°C° 0 mm 6 mps 752 mmHg 48%
    12:00 +4°C° 0 mm 6 mps 752 mmHg 43%
    13:00 +6°C° 0 mm 5 mps 752 mmHg 38%
    14:00 +6°C° 0 mm 5 mps 752 mmHg 39%
    15:00 +6°C° 0 mm 5 mps 752 mmHg 39%
    16:00 +6°C° 0 mm 4 mps 752 mmHg 39%
    17:00 +5°C° 0 mm 3 mps 753 mmHg 43%
    18:00 +4°C° 0 mm 3 mps 753 mmHg 47%
    19:00 +3°C° 0 mm 2 mps 753 mmHg 51%
    20:00 +4°C° 0 mm 1 mps 753 mmHg 52%
    21:00 +3°C° 0 mm 1 mps 753 mmHg 52%
    22:00 +2°C° 0 mm 1 mps 754 mmHg 53%
    23:00 +2°C° 0 mm 1 mps 754 mmHg 55%
    Show more